User: anonymous   Login
Location: Brainerd
(46.3580°N, 94.2010°W)
Time: 01:33:23
(UTC-05:00)
Language:

CZ-4C R/B - Orbit

View from above orbital plane
View from above orbital plane
View from above satellite
View from above satellite

Ground track
Ground track

The orbit data is extracted from the following two-line orbital elements,

1 32290U 07055B   15181.74340527  .00003761  00000-0  12615-3 0  9996
2 32290 097.5434 265.1462 0078324 159.3669 358.0000 15.28596977421977
Epoch (UTC): 30 June 2015 17:50:30
Eccentricity: 0.0078324
inclination: 97.5434°
perigee height: 426 km
apogee height: 534 km
right ascension of ascending node: 265.1462°
argument of perigee: 159.3669°
revolutions per day: 15.28596977
mean anomaly at epoch: 358.0000°
orbit number at epoch: 42197

The dashed part of the orbit path shows where the satellite is in the earth's shadow,  

DLR